Flag for Germany Weather past 2 weeks in Tönisvorst, North Rhine-Westphalia, Germany

Now
48 °F

Passing clouds.


Feels Like: 46 °F
Forecast: 37 / 56 °F
Wind: 6 mph from Southwest

Location: Monchengladbach Airport

Current Time: Mar 6, 2015 at 2:19:49 PM

Latest Report: Mar 6, 2015 at 1:50 PM


Visibility: N/A

Pressure: 30.57 "Hg

Humidity: 66%

Dew point: 37 °F

Location of TönisvorstLocation

Historic Weather in Tönisvorst — Graph

°F

Tönisvorst temperature yesterday

Maximum temperature yesterday: 48 °F (at 2:20 PM)
Minimum temperature yesterday: 37 °F (at 7:50 AM)
Average temperature yesterday: 44 °F

Past Weeks' High & Low Weather Summary

 TemperatureHumidityPressure
High52 °F (Mar 1, 10:20 AM)100% (Feb 22, 7:50 AM)30.66 "Hg (Feb 22, 7:50 AM)
Low30 °F (Feb 28, 7:20 AM)50% (Feb 28, 4:50 PM)29.45 "Hg (Feb 21, 8:20 AM)
Average43 °F77%29.97 "Hg
* Reported Feb 19 1:20 PM — Mar 6 1:20 PM, Tönisvorst, Weather by CustomWeather, © 2015

Note: Actual official high and low records may vary slightly from our data, if they occured in-between our weather recording intervals... More about our weather records

Advertising

Tönisvorst weather history for previous 24 hours

 ConditionsComfort  
Time TempWeatherWind HumidityBarometerVisibility
1:20 PM
Fri, Mar 6
48 °FPassing clouds.6 mph66%30.60 "HgN/A
12:50 PM46 °FPassing clouds.7 mph71%30.60 "HgN/A
12:20 PM45 °FPassing clouds.7 mph71%30.63 "HgN/A
11:50 AM45 °FPassing clouds.7 mph71%30.63 "HgN/A
11:20 AM45 °FPassing clouds.8 mph66%30.63 "HgN/A
10:50 AM45 °FPassing clouds.9 mph66%30.63 "HgN/A
10:20 AM43 °FPassing clouds.8 mph71%30.63 "HgN/A
9:50 AM43 °FPassing clouds.7 mph71%30.63 "HgN/A
9:20 AM43 °FSunny.6 mph76%30.63 "Hg10 mi
8:50 AM41 °FSunny.6 mph81%30.63 "Hg10 mi
8:20 AM41 °FSunny.6 mph81%30.63 "Hg10 mi
7:50 AM39 °FPartly sunny.5 mph81%30.60 "HgN/A
8:20 PM
Thu, Mar 5
39 °FClear.3 mph87%30.63 "Hg10 mi
7:50 PM39 °FClear.1 mph87%30.63 "Hg10 mi
7:20 PM43 °FClear.2 mph71%30.63 "Hg10 mi
6:50 PM45 °FPassing clouds.3 mph71%30.63 "HgN/A
6:20 PM46 °FPassing clouds.5 mph66%30.63 "HgN/A
5:50 PM46 °FPassing clouds.6 mph66%30.63 "HgN/A
5:20 PM48 °FPassing clouds.8 mph58%30.63 "HgN/A
4:50 PM48 °FPassing clouds.8 mph58%30.63 "HgN/A
4:20 PM48 °FPassing clouds.12 mph58%30.63 "HgN/A
3:50 PM48 °FPassing clouds.10 mph58%30.63 "HgN/A
3:20 PM48 °FPassing clouds.7 mph58%30.63 "HgN/A
2:50 PM48 °FPassing clouds.7 mph54%30.63 "HgN/A
2:20 PM48 °FPassing clouds.7 mph58%30.63 "HgN/A
Weather by CustomWeather, © 2015

See weather overviewHow to use our weather pages